Theta_e
342 340 340 347 347 356 355 355 354 354 353 353 351 347 346 343 336 343 347 347 339 338 342 348 349 348 349 348 348 348 348 348 344 346 347 347 346 347 348 347 346 345 345
350 349 351 353 354 354 354 354 353 353 352 351 351 350 348 345 335 339 346 348 347 344 345 347 349 347 346 348 349 348 348 349 348 346 347 347 347 346 345 348 346 346 346
350 353 352 352 350 352 353 354 352 352 351 350 351 351 350 346 342 343 344 348 349 350 347 350 349 349 348 347 348 349 349 348 347 347 347 347 347 347 346 344 347 347 345
345 347 347 346 347 348 349 348 348 348 348 348 349 350 350 347 349 350 350 350 348 346 347 346 345 347 348 346 347 348 348 348 346 348 347 348 347 346 344 344 342 341 338
340 342 342 342 343 345 346 346 346 345 345 346 347 350 350 349 347 349 349 349 348 347 346 339 342 347 348 348 347 347 348 348 348 348 346 346 345 343 344 345 344 338 344
338 337 336 335 333 334 337 338 338 338 340 342 345 346 344 342 338 342 346 345 341 337 336 337 345 347 346 347 348 347 347 347 347 347 346 345 345 345 344 344 345 346 345
338 338 337 335 333 332 331 332 333 333 333 335 335 334 336 342 346 345 343 338 336 337 338 341 343 344 344 346 346 344 344 346 346 345 347 346 345 347 345 346 349 349 349
338 338 337 335 333 332 332 332 332 332 333 333 333 333 333 334 333 339 347 348 344 343 339 335 334 338 342 342 338 339 344 343 346 347 348 348 348 347 347 344 349 348 347
330 331 332 335 336 334 334 334 334 334 334 335 333 332 332 332 334 334 335 336 345 346 345 340 339 330 335 342 338 340 340 343 346 346 347 346 348 348 348 347 348 347 347
329 330 331 332 334 334 335 336 336 335 335 334 334 334 333 332 332 334 333 336 340 341 342 344 343 332 331 342 341 335 337 342 343 344 347 348 348 349 349 348 348 349 345
330 330 331 331 331 332 331 331 333 335 335 335 334 333 333 333 332 332 332 336 337 336 336 336 338 343 334 337 340 336 335 334 341 342 343 344 345 346 346 348 349 349 348
327 328 328 329 329 328 330 332 332 332 333 334 335 335 334 333 332 332 331 333 336 336 337 338 338 338 337 341 337 334 337 335 336 343 342 343 344 344 347 346 347 348 347
326 327 328 328 328 329 330 330 331 332 332 333 333 332 333 333 332 330 329 332 332 334 334 336 342 342 342 342 341 337 335 339 340 342 343 343 344 345 347 347 347 348 348
323 326 327 328 327 328 329 329 330 330 330 330 331 331 331 331 331 330 331 332 333 333 333 332 333 335 340 341 342 342 339 337 339 341 343 343 343 343 345 344 343 347 348
314 316 318 323 327 327 327 328 329 329 329 330 330 330 330 330 330 330 331 332 332 332 333 331 330 333 337 339 340 340 341 340 338 340 342 342 343 343 343 344 343 344 346
312 312 312 315 319 323 327 328 328 329 329 330 330 330 330 330 330 331 332 332 331 332 330 331 332 333 337 340 340 340 341 340 340 340 341 342 342 342 343 344 344 344 345
312 312 312 312 314 319 323 327 328 328 326 327 328 329 330 330 330 330 331 330 328 328 325 328 330 332 334 336 341 341 342 343 344 341 341 342 342 343 343 344 344 344 345
312 312 312 312 312 314 317 323 328 328 328 328 328 329 329 329 329 329 329 328 324 322 323 325 329 331 332 332 333 338 341 340 341 342 341 341 343 343 343 343 344 343 344
312 312 313 313 313 314 315 321 327 328 328 328 327 327 327 326 328 329 329 328 325 324 326 326 328 330 331 330 331 330 332 336 339 340 341 342 342 342 343 343 343 343 344
310 313 316 315 314 315 317 323 324 325 327 327 327 328 328 328 328 328 328 326 325 325 325 324 325 325 327 329 331 330 331 331 335 335 337 341 343 344 344 344 344 344 343
310 311 313 314 315 315 316 320 324 325 325 326 327 328 328 328 328 328 328 328 327 327 326 325 326 326 326 327 328 330 331 331 332 334 336 337 340 343 344 344 344 344 344
310 310 309 309 309 310 310 312 314 314 317 321 324 325 327 327 327 327 327 326 327 328 328 328 327 327 328 328 329 330 331 332 333 334 335 337 339 340 341 341 340 340 340
310 310 310 309 308 308 307 307 308 308 310 312 315 318 321 322 323 325 326 327 327 327 327 328 328 328 329 329 329 331 332 334 334 334 335 336 336 339 341 341 340 339 338
310 310 310 310 309 308 308 307 306 305 306 307 308 308 310 311 312 314 314 316 317 320 323 325 327 329 330 330 330 331 331 332 334 335 336 336 337 338 340 341 340 341 342
308 308 308 308 308 308 307 307 306 305 305 305 304 305 305 305 306 307 307 309 311 312 315 317 321 325 329 331 332 331 331 332 334 335 336 337 338 339 341 341 341 341 341
306 306 306 306 306 306 306 306 306 305 305 304 303 303 303 305 303 304 305 306 307 309 309 312 315 317 321 325 327 331 333 334 334 334 336 336 337 338 339 340 340 340 340
Wind_Speed
30 28 30 21 27 24 24 19 18 16 15 16 20 21 22 16 15 18 18 21 18 15 17 23 26 25 26 27 28 25 26 22 10 14 17 17 16 14 13 13 16 19 24
23 22 23 22 17 18 17 18 15 13 10 13 17 24 27 23 19 17 21 23 28 24 25 27 28 27 26 28 28 28 27 27 22 16 21 20 18 16 16 16 15 14 14
5 8 4 3 8 8 6 6 8 8 8 12 15 19 23 24 18 20 24 24 26 28 26 24 26 25 27 26 28 29 29 27 23 23 21 23 19 17 17 20 21 22 18
5 4 2 4 6 9 8 6 5 4 6 7 9 11 17 19 20 17 19 22 21 21 21 22 25 26 28 25 27 30 27 27 24 24 25 24 21 17 14 14 19 22 21
7 4 1 3 4 5 5 5 5 5 6 7 6 7 9 11 12 14 14 16 16 18 20 24 25 26 26 25 27 27 25 24 22 20 18 17 15 12 14 14 18 17 15
9 6 7 6 7 5 4 3 3 3 5 6 7 7 6 8 9 12 13 15 16 18 22 22 21 21 22 21 21 19 19 22 23 19 17 16 23 27 21 19 17 8 4
18 17 15 14 13 12 9 9 9 8 8 9 9 8 9 9 11 12 14 17 18 19 19 18 19 21 21 20 21 23 21 21 25 23 20 26 24 32 28 19 20 15 14
23 23 22 20 19 20 18 17 16 15 14 15 16 15 16 15 15 15 16 19 23 24 24 21 21 20 19 19 15 18 21 25 23 27 29 30 30 28 26 26 21 15 12
23 26 27 27 27 27 25 24 23 22 21 20 21 20 20 21 19 19 20 23 25 28 29 29 26 25 24 22 16 14 18 19 23 25 27 31 28 26 24 23 16 14 8
25 25 26 23 21 26 29 29 28 27 27 26 25 24 24 25 25 24 24 25 26 28 29 31 28 23 24 22 24 19 17 20 15 13 17 23 26 22 19 25 24 21 8
23 26 25 22 22 21 21 22 25 27 30 32 32 32 30 28 29 29 26 26 29 27 28 32 27 23 25 24 28 27 22 14 16 19 21 23 26 24 25 25 26 26 21
28 27 28 27 28 26 26 29 28 29 29 30 33 35 36 34 31 33 32 31 28 28 28 29 29 24 25 27 28 32 33 23 20 22 24 24 28 27 27 28 29 31 29
27 28 28 27 28 26 25 25 25 26 25 23 21 22 26 35 34 34 32 31 31 31 31 31 28 26 25 26 27 28 23 28 25 24 23 25 26 33 32 26 23 23 22
26 25 25 24 25 26 25 24 21 21 20 22 22 22 23 24 29 33 30 26 24 24 25 27 24 26 28 30 27 27 27 28 29 27 26 26 27 28 27 27 25 24 23
25 24 24 24 24 25 25 24 21 23 24 22 22 23 21 19 29 29 27 24 21 22 20 14 14 15 14 19 26 29 30 27 23 26 26 24 24 27 28 29 26 23 22
26 24 24 25 24 25 22 23 22 24 27 29 32 32 27 28 28 27 27 24 22 19 14 13 15 19 16 17 18 20 26 25 26 25 25 25 24 24 28 27 29 25 23
25 27 24 23 22 22 20 18 17 20 21 24 25 28 31 33 33 33 32 30 27 28 17 19 19 22 22 19 20 21 22 25 22 23 24 25 25 28 25 20 20 23 21
29 28 26 23 21 21 20 21 16 16 14 18 20 17 20 25 26 26 25 25 21 20 20 22 23 25 26 24 23 24 26 22 20 20 22 25 27 27 22 20 20 19 20
29 26 25 22 21 22 23 22 18 15 16 17 19 18 18 18 22 24 24 25 24 21 22 23 26 25 28 30 29 28 25 25 23 22 21 22 24 25 23 26 24 28 24
30 28 22 19 18 20 20 18 13 13 14 17 16 19 19 18 17 20 20 19 21 24 25 25 27 28 29 28 29 29 28 25 27 28 27 24 24 23 23 24 21 20 21
27 26 25 23 22 22 22 20 18 15 13 15 17 21 18 16 19 20 20 22 25 28 30 29 29 30 29 27 27 27 29 26 27 27 30 30 29 24 26 25 24 23 21
26 25 24 22 22 23 24 22 21 20 20 20 19 18 15 13 17 20 23 24 26 27 29 29 29 27 26 26 26 27 27 27 27 28 29 30 27 26 27 25 23 22 22
26 24 24 24 24 23 24 24 23 22 21 20 21 21 20 17 15 14 16 17 18 22 25 26 27 28 30 30 29 28 27 27 27 26 28 29 28 25 25 24 24 21 20
24 23 22 23 24 24 25 23 23 23 22 21 21 20 20 20 20 18 18 19 18 17 14 15 22 26 27 26 28 31 28 28 29 28 27 27 27 28 28 26 24 24 23
23 23 24 24 25 24 24 24 24 24 25 24 24 22 22 23 23 22 22 21 20 20 19 18 16 16 16 18 26 31 32 29 27 26 28 30 30 28 27 27 26 26 25
25 25 23 22 22 24 23 23 24 26 24 26 26 24 23 29 25 23 26 25 26 26 24 22 21 22 22 22 20 20 22 27 28 28 29 29 29 29 27 27 29 25 26
Wind_Direction
224 253 257 281 271 278 265 262 265 275 265 253 248 234 225 244 222 231 251 239 240 263 275 267 263 265 264 261 255 248 244 242 222 260 265 268 252 247 245 245 246 246 246
236 253 274 276 277 278 279 265 268 274 261 259 254 252 244 238 238 256 238 245 239 247 264 269 262 260 262 261 255 247 241 244 238 244 262 260 255 250 243 243 237 226 224
181 192 211 5 360 3 308 280 280 280 275 277 259 252 247 244 260 260 256 256 256 247 259 262 261 256 251 255 252 244 241 242 249 246 252 259 258 251 246 245 235 238 246
228 180 126 62 60 61 61 45 30 352 311 290 272 260 255 252 260 260 252 244 238 240 252 258 261 255 253 253 249 245 246 246 246 242 245 252 252 246 240 247 242 240 243
208 215 310 46 44 49 60 49 36 17 356 353 344 267 250 255 266 257 246 238 235 243 256 259 261 257 254 251 243 240 237 238 234 228 229 231 223 211 219 242 241 232 230
243 243 270 280 289 287 276 266 273 306 326 325 324 318 304 287 273 263 253 248 253 257 265 266 253 247 249 236 229 228 234 235 228 221 220 219 227 231 234 234 231 208 239
237 246 243 243 250 259 262 269 270 269 274 274 277 285 295 294 289 283 266 256 253 258 263 252 246 243 247 236 229 229 230 238 240 239 227 229 230 241 234 232 224 218 220
269 260 260 255 250 254 248 245 249 252 254 261 268 274 280 279 276 278 280 271 264 264 259 254 257 259 258 228 233 243 241 238 247 237 242 246 253 256 251 231 220 213 221
313 304 297 290 275 263 253 249 249 251 250 248 259 269 273 278 272 273 277 277 270 269 266 262 264 262 255 246 249 249 245 246 235 238 252 249 252 248 241 225 210 196 206
321 317 311 306 294 281 277 269 264 257 257 259 257 258 263 271 276 271 271 268 268 270 276 275 268 261 257 239 241 252 251 245 213 238 248 232 236 231 226 221 223 206 194
318 319 314 309 307 302 293 292 283 276 270 261 259 261 260 262 269 271 273 263 263 268 269 276 277 267 252 239 235 246 268 288 259 247 254 257 240 236 232 224 223 226 225
311 308 305 307 308 301 292 288 283 281 274 266 259 258 260 263 265 269 271 265 263 262 263 270 274 267 273 265 256 252 254 261 267 254 240 253 247 234 237 234 231 233 239
309 303 303 303 302 293 282 278 274 271 264 259 255 254 255 259 264 273 274 267 266 266 264 270 271 264 267 271 269 265 260 245 241 244 235 242 246 244 232 232 230 231 235
324 311 298 293 296 291 283 277 266 260 254 253 255 251 250 251 262 270 271 271 269 264 262 262 269 268 264 261 262 264 258 252 239 230 236 237 239 244 235 232 228 225 229
320 316 311 305 294 289 284 277 266 262 256 254 251 250 245 243 256 268 270 273 281 265 260 249 264 270 266 256 250 251 253 254 231 232 240 247 248 237 236 237 228 227 220
315 313 309 304 303 301 285 280 277 274 276 270 264 256 254 260 266 269 272 271 272 265 243 241 266 266 249 245 236 236 244 238 235 228 232 244 249 247 239 231 231 219 221
310 303 298 297 296 296 307 282 275 288 284 282 275 264 259 259 262 269 272 273 271 266 247 241 244 247 249 250 242 231 228 242 254 237 219 218 226 238 229 221 230 223 219
309 302 294 287 289 298 296 300 264 277 285 288 291 279 268 264 265 266 269 274 272 251 245 233 234 241 244 251 254 248 236 244 244 244 228 218 218 224 231 233 234 231 224
326 317 306 290 286 291 291 287 285 276 275 277 286 283 274 281 267 262 264 262 260 252 254 245 244 243 245 250 251 253 249 249 245 245 241 233 225 213 211 216 221 218 219
338 335 336 334 310 299 296 292 306 290 276 272 272 275 279 265 267 264 262 256 254 261 263 261 261 259 251 243 244 248 249 249 249 246 243 237 232 223 219 216 226 220 214
348 349 4 16 14 4 1 356 351 346 312 293 282 301 301 278 273 274 273 269 265 267 266 264 266 264 264 261 251 243 245 246 248 243 243 245 242 224 225 224 218 218 216
358 360 0 6 8 7 1 1 0 356 350 345 336 330 332 299 287 285 278 278 275 275 273 272 269 264 265 262 259 249 243 245 248 248 245 247 246 243 241 238 237 231 229
3 3 6 12 14 12 11 5 1 355 352 352 351 356 7 4 350 332 316 311 302 289 286 281 276 267 269 267 263 257 250 248 256 255 247 246 243 239 233 228 232 230 222
3 7 5 8 10 13 13 9 5 2 1 2 357 356 1 360 359 357 345 328 320 312 308 294 280 277 272 270 273 266 260 261 257 253 251 244 240 242 232 231 227 223 217
11 10 11 10 8 6 6 8 12 9 11 8 2 360 4 5 1 355 355 356 349 341 328 311 299 290 282 277 269 266 268 269 261 257 256 253 244 240 232 229 227 223 223
26 27 19 14 13 11 8 9 9 11 9 12 4 360 8 17 350 353 360 1 359 357 352 341 323 303 287 280 286 282 269 263 263 263 254 248 248 243 233 231 236 225 224